Kolkata, India

2:25 PM IST on March 25, 2017 (GMT +0530)
Netaji Subhash Chandra Bose International

Weather History for VECC - October, 2012

Change the Weather History Date:

Sunday, October 7, 2012

  Actual Average Record
Temperature  
Mean Temperature 84 °F -  
Max Temperature 89 °F 88 °F 95 °F (2000)
Min Temperature 79 °F 76 °F 73 °F (2003)
Cooling Degree Days 19    
Growing Degree Days 34 (Base 50)    
Moisture  
Dew Point 78 °F    
Average Humidity 82    
Maximum Humidity 94    
Minimum Humidity 61    
Precipitation  
Precipitation 0.00 in - - ()
Sea Level Pressure  
Sea Level Pressure 29.78 in    
Wind  
Wind Speed 2 mph ()    
Max Wind Speed 7 mph    
Max Gust Speed -    
Visibility 1.8 miles    
Events      
Averages and records for this station are not official NWS values.
T = Trace of Precipitation, MM = Missing Value Source: Averaged Metar Reports

Daily Weather History Graph

Daily Weather History Graph

Search for Another Location

Airport or City:

Trip Planner

Search our weather history database for the weather conditions in past years. The results will help you decide how hot, cold, wet, or windy it might be!

Date:

Astronomy

Oct. 07, 2012 Rise Set
Actual Time 5:29 AM IST 5:17 PM IST
Civil Twilight 5:07 AM IST 5:40 PM IST
Nautical Twilight 4:41 AM IST 6:06 PM IST
Astronomical Twilight 4:15 AM IST 6:32 PM IST
Moon 10:29 PM IST (10/7) 11:17 AM IST (10/7)
Length of Visible Light 12h 33m
Length of Day
11h 48m
Waning Gibbous, 60% of the Moon is Illuminated
Oct 7
Waning Gibbous
Oct 8
Last Quarter
Oct 15
New
Oct 22
First Quarter
Oct 30
Full

Hourly Weather History & Observations

Time (IST) Temp. Heat Index Dew Point Humidity Pressure Visibility Wind Dir Wind Speed Gust Speed Precip Events Conditions
12:20 AM 80.6 °F 87.1 °F 77.0 °F 89% 29.77 in 1.9 mi Calm Calm - N/A   Haze
12:50 AM 80.6 °F 87.1 °F 77.0 °F 89% 29.74 in 1.9 mi Calm Calm - N/A   Haze
1:20 AM 80.6 °F 87.1 °F 77.0 °F 89% 29.74 in 1.9 mi Calm Calm - N/A   Haze
1:50 AM 80.6 °F 87.1 °F 77.0 °F 89% 29.74 in 1.9 mi Calm Calm - N/A   Haze
2:20 AM 80.6 °F 87.1 °F 77.0 °F 89% 29.77 in 1.9 mi Calm Calm - N/A   Haze
2:30 AM 80 °F - 77 °F 86% 29.78 in 1 mi Calm Calm - -   Haze
2:50 AM 80.6 °F 87.1 °F 77.0 °F 89% 29.77 in 1.9 mi Calm Calm - N/A   Haze
3:20 AM 80.6 °F 87.1 °F 77.0 °F 89% 29.74 in 1.9 mi Calm Calm - N/A   Haze
3:50 AM 80.6 °F 87.1 °F 77.0 °F 89% 29.74 in 1.9 mi NNE 3.5 mph - N/A   Haze
4:20 AM 80.6 °F 87.1 °F 77.0 °F 89% 29.77 in 1.9 mi North 3.5 mph - N/A   Haze
5:20 AM 78.8 °F - 77.0 °F 94% 29.80 in 1.4 mi SSE 3.5 mph - N/A   Haze
5:30 AM 80 °F - 78 °F 91% 29.81 in 1 mi Calm Calm - -   Haze
5:50 AM 80.6 °F 87.1 °F 77.0 °F 89% 29.80 in 1.2 mi Calm Calm - N/A   Haze
6:20 AM 80.6 °F 87.1 °F 77.0 °F 89% 29.80 in 1.1 mi Calm Calm - N/A   Haze
6:50 AM 80.6 °F 87.1 °F 77.0 °F 89% 29.83 in 1.1 mi SE 4.6 mph - N/A   Haze
7:20 AM 80.6 °F 87.1 °F 77.0 °F 89% 29.83 in 1.2 mi ESE 3.5 mph - N/A   Haze
7:50 AM 82.4 °F 92.4 °F 78.8 °F 89% 29.83 in 1.2 mi Calm Calm - N/A   Haze
8:20 AM 82.4 °F 92.4 °F 78.8 °F 89% 29.86 in 1.2 mi East 4.6 mph - N/A   Haze
8:30 AM 82 °F - 79 °F 87% 29.86 in 1 mi NE 2.3 mph - -   Haze
8:50 AM 82.4 °F 92.4 °F 78.8 °F 89% 29.86 in 1.2 mi East 4.6 mph - N/A   Haze
9:20 AM 84.2 °F 96.1 °F 78.8 °F 84% 29.86 in 1.6 mi East 4.6 mph - N/A   Haze
9:50 AM 84.2 °F 96.1 °F 78.8 °F 84% 29.83 in 1.6 mi SE 4.6 mph - N/A   Haze
10:20 AM 84.2 °F 96.1 °F 78.8 °F 84% 29.83 in 1.9 mi SE 4.6 mph - N/A   Haze
10:50 AM 86.0 °F 99.3 °F 78.8 °F 79% 29.83 in 1.9 mi ESE 4.6 mph - N/A   Haze
11:20 AM 86.0 °F 99.3 °F 78.8 °F 79% 29.83 in 2.2 mi SE 5.8 mph - N/A   Haze
11:30 AM 86 °F - 78 °F 70% 29.83 in 1 mi East 2.3 mph - -   Haze
11:50 AM 86.0 °F 99.3 °F 78.8 °F 79% 29.80 in 2.5 mi ESE 6.9 mph - N/A   Haze
12:20 PM 86.0 °F 99.3 °F 78.8 °F 79% 29.80 in 2.5 mi ESE 5.8 mph - N/A   Haze
12:50 PM 87.8 °F 102.5 °F 78.8 °F 75% 29.77 in 2.5 mi SE 3.5 mph - N/A   Haze
1:20 PM 87.8 °F 99.7 °F 77.0 °F 70% 29.77 in 2.5 mi SSE 5.8 mph - N/A   Haze
1:50 PM 87.8 °F 99.7 °F 77.0 °F 70% 29.74 in 2.8 mi SSE 5.8 mph - N/A   Haze
2:20 PM 87.8 °F 99.7 °F 77.0 °F 70% 29.74 in 2.8 mi SE 4.6 mph - N/A   Haze
2:30 PM 88 °F - 76 °F 61% 29.76 in 1 mi Calm Calm - -   Haze
2:50 PM 87.8 °F 99.7 °F 77.0 °F 70% 29.71 in 2.8 mi SSE 3.5 mph - N/A   Haze
3:20 PM 87.8 °F 99.7 °F 77.0 °F 70% 29.71 in 2.8 mi Calm Calm - N/A   Haze
3:50 PM 87.8 °F 99.7 °F 77.0 °F 70% 29.71 in 2.8 mi SSE 4.6 mph - N/A   Haze
4:20 PM 87.8 °F 99.7 °F 77.0 °F 70% 29.71 in 2.8 mi Calm Calm - N/A   Haze
4:50 PM 87.8 °F 99.7 °F 77.0 °F 70% 29.71 in 2.8 mi Calm Calm - N/A   Haze
5:20 PM 86.0 °F 99.3 °F 78.8 °F 79% 29.74 in 2.5 mi Calm Calm - N/A   Haze
5:30 PM 86 °F - 78 °F 71% 29.74 in 1 mi Calm Calm - -   Haze
5:50 PM 86.0 °F 99.3 °F 78.8 °F 79% 29.74 in 2.5 mi Calm Calm - N/A   Haze
6:20 PM 84.2 °F 96.1 °F 78.8 °F 84% 29.74 in 2.5 mi Calm Calm - N/A   Haze
6:50 PM 84.2 °F 96.1 °F 78.8 °F 84% 29.74 in 2.2 mi Calm Calm - N/A   Haze
7:20 PM 84.2 °F 96.1 °F 78.8 °F 84% 29.74 in - Calm Calm - N/A   Haze
7:50 PM 84.2 °F 96.1 °F 78.8 °F 84% 29.77 in 1.9 mi Calm Calm - N/A   Haze
8:20 PM 82.4 °F 92.4 °F 78.8 °F 89% 29.77 in 1.7 mi SSE 3.5 mph - N/A   Haze
8:30 PM 82 °F - 77 °F 82% 29.80 in 1 mi Calm Calm - -   Haze
9:20 PM 82.4 °F 90.9 °F 77.0 °F 84% 29.80 in 1.7 mi SSE 3.5 mph - N/A   Haze
9:50 PM 82.4 °F 90.9 °F 77.0 °F 84% 29.80 in 1.7 mi Calm Calm - N/A   Haze
10:20 PM 82.4 °F 90.9 °F 77.0 °F 84% 29.77 in 1.7 mi Calm Calm - N/A   Haze
10:50 PM 82.4 °F 90.9 °F 77.0 °F 84% 29.77 in 1.7 mi SSE 3.5 mph - N/A   Haze
11:20 PM 82.4 °F 90.9 °F 77.0 °F 84% 29.77 in 1.7 mi SSE 3.5 mph - N/A   Haze
11:30 PM 80 °F - 76 °F 83% 29.80 in 1 mi Calm Calm - -   Haze
11:50 PM 80.6 °F 86.2 °F 75.2 °F 84% 29.77 in 1.7 mi Calm Calm - N/A   Haze